Location: Mahannah Oil Field
(37.4664°N, 96.6003°W)
Time: 02:10:24
(UTC+00:00)

deb Explorer IX - Pass Details

Date: 21 January 2021
Orbit: 537 x 1102 km, 38.8° (Epoch: 25 February)

Event Time Altitude Azimuth Distance (km) Brightness Sun altitude
Rises 00:37:29 0° 229° (SW) 3,650 ? -11.9°
Reaches altitude 10° 00:40:24 10° 223° (SW) 2,618 ? -12.5°
Maximum altitude 00:46:13 42° 154° (SSE) 1,159 ? -13.6°
Enters shadow 00:49:38 20° 93° (E) 1,734 ? -14.2°
Drops below altitude 10° 00:51:13 10° 84° (E) 2,247 - -14.5°
Sets 00:53:34 0° 78° (ENE) 3,083 - -15.0°
